Regional Weather Roundup
Issued by NWS Upton, NY

Current Version | Previous Version | Text Only | Print | Product List | Glossary On
Versions: 1 2 3 4 5 6 7 8 9 10 11 12 13 14 15 16 17 18 19 20 21 22 23 24 25 26 27
000
ASUS41 KOKX 172209
RWROKX

REGIONAL WEATHER ROUNDUP
NATIONAL WEATHER SERVICE NEW YORK NY
600 PM EDT THU AUG 17 2017

NOTE: "FAIR" INDICATES FEW OR NO CLOUDS BELOW 12,000 FEET WITH NO
SIGNIFICANT WEATHER AND/OR OBSTRUCTIONS TO VISIBILITY.

NYZ071-072-176-178-NJZ106-104-172300-
NEW YORK CITY METRO AREA

CITY           SKY/WX    TMP DP  RH WIND       PRES   REMARKS
Central Park   SUNNY     77  60  55 CALM      30.00F
Bronx Bot Gard   N/A     79  59  50 SW8       30.00F
LaGuardia APRT PTSUNNY   80  59  48 S10       29.97F
Kennedy INTL   PTSUNNY   77  66  68 SE9       29.99F
Breezy Point     N/A     73 N/A N/A SE9         N/A
Newark/Liberty PTSUNNY   78  63  59 SE9       29.98S
Teterboro      SUNNY     81  63  54 S9        29.96F
$$

NYZ177-179-078>081-172300-
LONG ISLAND NEW YORK

CITY           SKY/WX    TMP DP  RH WIND       PRES   REMARKS
Jones Beach      N/A     73 N/A N/A SE8         N/A
Matinecock PT    N/A     77 N/A N/A S5          N/A
Farmingdale    SUNNY     75  62  64 S8        29.99F
MacArthur/ISP  PTSUNNY   75  60  59 S8        29.99F
Shirley        SUNNY     76  61  59 S7        30.00F
Mt Sinai Harb    N/A    N/A N/A N/A S7          N/A
Westhampton    SUNNY     74  56  53 S6        30.02F
East Hampton   FAIR      72  55  55 S6        30.00F
Montauk        NOT AVBL
$$

NYZ052-065-067-172300-
HUDSON VALLEY

CITY           SKY/WX    TMP DP  RH WIND       PRES   REMARKS
White Plains   MOSUNNY   77  60  55 SE9       29.99S
Larchmont Harb   N/A     77 N/A N/A SE9         N/A
Croton On Huds   N/A     81 N/A N/A S6G12       N/A
Newburgh       MOSUNNY   81  64  57 VRB7      29.98F
Montgomery     CLOUDY    81  65  58 S6        29.96F
Poughkeepsie   CLOUDY    81  61  50 S3        29.95F
Albany         PTSUNNY   77  52  41 S5        29.97S
$$

NJZ001-105-106-008-010-013-015-019>022-104-172300-
NEW JERSEY

CITY           SKY/WX    TMP DP  RH WIND       PRES   REMARKS
Newark/Liberty PTSUNNY   78  63  59 SE9       29.98S
Teterboro      SUNNY     81  63  54 S9        29.96F
Caldwell       MOSUNNY   81  66  60 VRB7      29.97F
Somerville     SUNNY     82  68  62 VRB3      29.95S
Linden         FAIR      78  62  57 S9        29.98F
Perth Amboy      N/A     75 N/A N/A E12         N/A
Sussex         SUNNY     81  66  60 VRB3      29.97F
Andover          N/A     81  65  58 VRB3      29.98S
Trenton        PTSUNNY   83  69  62 S9        29.95S
Millville      PTSUNNY   84  72  67 S5        29.96F
Atlantic City  MOSUNNY   83  68  60 S9        29.97S
Wrightstown    MOSUNNY   83  69  63 SE10      29.93S
Toms River     SUNNY     82  71  69 SE7       29.98F
Belmar         MOSUNNY   77  70  79 SE9       30.00S
$$

PAZ047>061-062-071-172300-
EASTERN PENNSYLVANIA

CITY           SKY/WX    TMP DP  RH WIND       PRES   REMARKS
Philadelphia   MOSUNNY   86  66  51 S12       29.95S
Allentown      PTSUNNY   85  64  49 S6        29.95F
Scranton       PTSUNNY   81  65  58 VRB7      29.96F
$$

CTZ002-004>006-009-010-012-RIZ004-006-007-MAZ004-011-015-172300-
SOUTHERN NEW ENGLAND
 IN CT

CITY           SKY/WX    TMP DP  RH WIND       PRES   REMARKS
Bradley INTL   PTSUNNY   81  57  43 SW7       29.97S
Hartford       MOSUNNY   81  60  48 S9        29.96F
Danbury        CLOUDY    79  61  53 S7        29.99F
Wtrbury/Oxford MOSUNNY   77  61  57 S7        30.01F
Norwalk Harbor   N/A     75 N/A N/A SE6         N/A
Bridgeport     SUNNY     77  60  55 SE6       29.99S
Meriden        MOSUNNY   78  57  48 S8        29.98S
New Haven      CLOUDY    78  59  51 SE7       29.99F
Chester        NOT AVBL
Groton         CLOUDY    73  59  61 S9        29.99F
Wilimantic     MOSUNNY   80  53  39 CALM      29.98S

 IN RI

CITY           SKY/WX    TMP DP  RH WIND       PRES   REMARKS
Providence     MOSUNNY   76  54  46 S12       30.00R
Block Island   SUNNY     72  59  63 S9        30.01F
Westerly       CLOUDY    75  52  44 S5        30.01S
 IN MA

CITY           SKY/WX    TMP DP  RH WIND       PRES   REMARKS
Boston         PTSUNNY   81  49  32 W10       29.96S
Worcester      SUNNY     75  46  35 W6        30.01S
Westfield      MOSUNNY   77  58  51 SE3       29.97S
Provincetown   MOSUNNY   74  59  59 S12       29.99S
Nantucket      SUNNY     68  59  73 S7        30.01S
$$

ANZ330-335-338-340-345-350-353-355-172300-
COASTAL MARINE OBSERVATIONS


STATION/POSITION TIME  SKY/WX   TEMP    WIND        PRES    VSBY  WAVE
                                AIR SEA DIR/SP/G                  HT/PER
                 (UTC)          (F)     (DEG/KT/KT) (MB)    (MI)  (FT/S)
NY HARB ENTRANCE 2050            73 76  130/  8/ 10 1015.2          2/ 8
GREAT SOUTH BAY  2130            72 78  160/  8/ 10   N/A
23 SSW MONTAUK P 2050            71 73              1016.5          2/ 8
15 E BARNEGAT LI 2130               78                N/A           3/ 7
HUDSON CANYON    2050            76 78  210/  4/  6 1014.9          3/ 8
KINGS POINT      2142            77 74  200/  9/ 11 1015.1
EXECUTION ROCKS  NOT AVBL
WESTERN LI SOUND NOT AVBL
CENTRAL LI SOUND NOT AVBL
EASTERN LI SOUND NOT AVBL
ROBBINS REEF     2148                   170/ 12/ 14 1015.8
$$


>>>>>>>>>>>>>>>>>>>>>>>>>>>> KEY <<<<<<<<<<<<<<<<<<<<<<<<<<<
>                                                          <
>     SKY/WX - Sky Condition/Present Weather               <
>     TMP    - Temperature in Fahrenheit                   <
>     DP     - Dew Point in Fahrenheit                     <
>     RH     - Relative Humidity in Percent                <
>     WIND   - Direction (from) and Speed in MPH           <
>     PRES   - Mean Sea Level Pressure (inches of Hg)      <
>     WCI    - Wind Chill Index                            <
>     VSB    - VISIBILITY IN MILES                         <
>     HX     - HEAT INDEX                                  <
>     TC     - TEMPERATURE IN CELSIUS                      <
>     VRB    - VARIABLE WIND DIRECTION                     <
>                                                          <
>>>>>>>>>>>>>>>>>>>>>>>>>>>> KEY <<<<<<<<<<<<<<<<<<<<<<<<<<<




USA.gov is the U.S. government's official web portal to all federal, state and local government web resources and services.